Regional Weather Roundup
Issued by NWS Cleveland, OH

Home | Current Version | Previous Version | Text Only | Print | Product List | Glossary Off
Versions: 1 2 3 4 5 6 7 8 9 10 11 12 13 14 15 16 17 18 19 20 21 22 23 24 25 26 27 28 29 30 31 32 33 34 35 36 37 38 39 40 41 42 43 44 45 46 47 48 49 50

000
ASUS41 KCLE 271910
RWRCLE
OHIO REGIONAL WEATHER ROUNDUP
NATIONAL WEATHER SERVICE WILMINGTON, OH
300 PM EDT TUE JUN 27 2017

NOTE: "FAIR" INDICATES FEW OR NO CLOUDS BELOW 12,000 FEET WITH NO
SIGNIFICANT WEATHER AND/OR OBSTRUCTIONS TO VISIBILITY.

OHZ001>008-015>018-024>027-034-035-043-044-272000-
   NORTHWEST OHIO

CITY           SKY/WX    TMP DP  RH WIND       PRES   REMARKS
DEFIANCE       FAIR      70  46  42 NW8       30.10F
FINDLAY        PTSUNNY   69  42  37 CALM      30.10F
TOLEDO EXPRESS PTSUNNY   68  44  42 W9        30.08F
TOLEDO EXEC    FAIR      71  44  37 W5        30.09F
LIMA           FAIR      67  43  41 NW8       30.12F
$$

OHZ009>014-019>023-028>033-038-089-272000-
   NORTHEAST OHIO

CITY           SKY/WX    TMP DP  RH WIND       PRES   REMARKS
CLE-HOPKINS    FAIR      70  47  43 NW15      30.11S
CLE-LAKEFRONT  FAIR      68  50  52 W16       30.08S
CUY CO. ARPT   MOSUNNY   66  50  55 W12       30.10S
LORAIN-ELYRIA  FAIR      67  41  38 W12       30.10F
ASHTABULA      FAIR      64  51  62 NW9G17    30.08S
AKRON-CANTON   PTSUNNY   70  45  40 W15       30.09S
WOOSTER        FAIR      68  44  42 NW12G18   30.10F
MANSFIELD      FAIR      69  46  43 NW13      30.11F
YOUNGSTOWN     PTSUNNY   65  48  54 NW13G20   30.08S
$$

OHZ042-051>053-060>062-070>072-077>081-272000-
  SOUTHWEST OHIO

CITY           SKY/WX    TMP DP  RH WIND       PRES   REMARKS
CINC-COVINGTON PTSUNNY   71  50  47 N3        30.14F
CINC-LUNKEN    PTSUNNY   72  49  44 VRB6      30.14F
HAMILTON       PTSUNNY   72  51  47 VRB7      30.14F
DAYTON         FAIR      70  46  42 NW8       30.14F
WRIGHT-PAT AFB FAIR      70  48  45 W9        30.12F
DAYTON GENERAL FAIR      70  47  43 NW9       30.13F
WILMINGTON     PTSUNNY   70  50  49 NW8       30.13F
$$

OHZ036-037-039>041-045>050-054>059-063>069-073>076-082>088-272000-
  CENTRAL AND SOUTHEAST OHIO

CITY           SKY/WX    TMP DP  RH WIND       PRES   REMARKS
COLUMBUS       FAIR      71  51  49 W9        30.11S
OSU AIRPORT    PTSUNNY   67  50  54 NW6       30.11F
BOLTON FIELD   MOSUNNY   70  50  49 NW9       30.13R
RICKENBACK AFB FAIR      69  49  48 SW7       30.11F
NEWARK         PTSUNNY   72  45  37 NW6       30.11S
MARION         FAIR      69  42  37 W9        30.12S
LANCASTER      PTSUNNY   69  49  48 VRB5      30.12F
ZANESVILLE     CLOUDY    69  49  48 VRB3      30.11S
NEW PHILLY     FAIR      69  46  43 NW8       30.10S
$$




USA.gov is the U.S. government's official web portal to all federal, state and local government web resources and services.